User: anonymous   Login
Location: Bush Observatory
(40.2653°N, 94.3194°W)
Time: 04:02:45
(UTC-06:00)
Language:

Cosmos 1933 Rocket - Orbit

View from above orbital plane
View from above orbital plane
View from above satellite
View from above satellite

Ground track
Ground track

The orbit data is extracted from the following two-line orbital elements,

1 18959U 88020B   17017.19016558  .00000053  00000-0  36068-5 0  9997
2 18959  82.5362  51.9165 0015317 275.7915  84.1553 14.83318993558193
Epoch (UTC): 17 January 2017 04:33:50
Eccentricity: 0.0015317
inclination: 82.5362°
perigee height: 608 km
apogee height: 629 km
right ascension of ascending node: 51.9165°
argument of perigee: 275.7915°
revolutions per day: 14.83318993
mean anomaly at epoch: 84.1553°
orbit number at epoch: 55819

The dashed part of the orbit path shows where the satellite is in the earth's shadow,  

DLR